This demonstration page uses our WeatherBlox Daily Observations layout. Learn more.

Left ArrowRight Arrow

31.84235, -102.49876

Hourly Observations for March 6, 2017

Temp ( °F °C ) Dew Point ( °F °C ) Humidity (%) Winds ( mph kmh ) Pressure ( in mb ) Visibility ( mi km ) Precip ( " mm )
12:46 am 00:46 Mostly Cloudy 57 13.9 51 10.6 81 81 S 13 20 29.85 1011 8 13 0.00 0.00
12:53 am 00:53 Mostly Cloudy 57 13.9 51 10.6 81 81 S 20 31 29.79 1009 8 13 0.00 0.00
1:53 am 01:53 Cloudy 59 15 53 11.7 81 81 S 23 37 29.78 1008 7 11 0.00 0.00
2:38 am 02:38 Cloudy 59 15 53 11.7 81 81 S 17 28 29.80 1009 8 13 0.00 0.00
2:53 am 02:53 Cloudy 59 15 53 11.7 81 81 SW 17 28 29.78 1009 8 13 0.00 0.00
3:40 am 03:40 Partly Cloudy 59 15 53 11.7 81 81 S 20 31 29.77 1008 9 14 0.00 0.00
3:53 am 03:53 Clear 58 14.4 53 11.7 84 84 S 15 24 29.73 1007 9 14 0.00 0.00
4:53 am 04:53 Clear 58 14.4 53 11.7 84 84 S 18 30 29.72 1006 8 13 0.00 0.00
5:53 am 05:53 Clear 57 13.9 53 11.7 87 87 S 16 26 29.73 1007 9 14 0.00 0.00
6:53 am 06:53 Clear 56 13.3 52 11.1 87 87 S 16 26 29.74 1007 8 13 0.00 0.00
7:34 am 07:34 Partly Cloudy 57 13.9 52 11.1 83 83 S 14 22 29.80 1009 7 11 0.00 0.00
7:53 am 07:53 Mostly Sunny 57 13.9 52 11.1 83 83 S 15 24 29.77 1008 8 13 0.00 0.00
8:53 am 08:53 Partly Cloudy 61 16.1 52 11.1 72 72 S 14 22 29.80 1009 10 16 0.00 0.00
9:53 am 09:53 Mostly Sunny 65 18.3 51 10.6 61 61 S 15 24 29.80 1009 10 16 0.00 0.00
10:53 am 10:53 Sunny 71 21.7 46 7.8 41 41 SSW 16 26 29.80 1009 10 16 0.00 0.00
11:53 am 11:53 Sunny 78 25.6 36 2.2 22 22 WSW 28 44 29.78 1009 10 16 0.00 0.00
12:53 pm 12:53 Sunny 77 25 31 -0.6 18 18 WSW 25 41 29.76 1008 10 16 0.00 0.00
1:53 pm 13:53 Sunny 81 27.2 28 -2.2 14 14 WSW 24 39 29.73 1007 10 16 0.00 0.00
2:25 pm 14:25 Mostly Sunny 81 27.2 29 -1.7 15 15 W 25 41 29.65 1004 10 16 0.00 0.00
2:53 pm 14:53 Sunny 80 26.7 29 -1.7 15 15 SW 20 31 29.70 1006 10 16 0.00 0.00
3:53 pm 15:53 Sunny 82 27.8 29 -1.7 14 14 SW 20 31 29.69 1005 10 16 0.00 0.00
4:53 pm 16:53 Sunny 82 27.8 22 -5.6 11 11 WSW 17 28 29.68 1005 10 16 0.00 0.00
5:53 pm 17:53 Sunny 79 26.1 24 -4.4 13 13 W 18 30 29.70 1006 10 16 0.00 0.00
6:53 pm 18:53 Clear 76 24.4 24 -4.4 14 14 W 14 22 29.74 1007 10 16 0.00 0.00
7:53 pm 19:53 Clear 70 21.1 25 -3.9 18 18 NW 9 15 29.78 1008 10 16 0.00 0.00
8:53 pm 20:53 Clear 69 20.6 25 -3.9 19 19 WNW 12 19 29.80 1009 10 16 0.00 0.00
9:53 pm 21:53 Clear 72 22.2 23 -5 16 16 WNW 18 30 29.80 1009 10 16 0.00 0.00
10:53 pm 22:53 Clear 69 20.6 22 -5.6 17 17 W 16 26 29.82 1010 10 16 0.00 0.00
11:53 pm 23:53 Clear 65 18.3 22 -5.6 19 19 WNW 13 20 29.83 1010 10 16 0.00 0.00

Powered by AerisWeather